Date String (YYYY-MM-DD hh:mm:ss) UTC,Instrument flags,Ambient pressure (hPa),Sample flow (lpm),Bypass flow (lpm),Sample temperature (°C),Ambient temperature (°C),ASC tube jacket temperature (°C),LED temperature (°C),Box temperature (°C),Sample RH (%),Span deviation,Mass concentration (μg/m³),Mass concentration (μg/m³),Mass concentration (μg/m³)
DateTimeUTC,F1_M11,P_M11,Q1_M11,Q2_M11,T1_M11,T2_M11,T3_M11,T4_M11,T5_M11,U1_M11,ZSPAN_M11,X0_M11,X2_M11,X1_M11
2022-02-25 03:00:00,,0826.1,5.01,0.00,22.5,22.2,00.0,31.4,24.1,05.9,0001.4,0014.28,0009.00,0008.25
2022-02-25 03:01:00,,0826.1,5.00,0.00,22.4,22.0,00.0,31.4,24.0,06.0,0001.8,0014.23,0009.01,0008.29
2022-02-25 03:02:00,,0826.0,5.01,0.00,22.3,21.8,00.0,31.4,24.0,06.0,0001.3,0014.35,0009.03,0008.32
2022-02-25 03:03:00,,0826.0,5.00,0.00,22.3,21.7,00.0,31.4,23.9,06.0,0000.8,0014.48,0009.07,0008.35
2022-02-25 03:04:00,,0826.0,4.99,0.00,22.3,21.6,00.0,31.4,23.9,06.1,0000.6,0014.50,0009.10,0008.37
2022-02-25 03:05:00,,0826.0,5.00,0.00,22.2,21.5,00.0,31.4,23.9,06.1,0000.7,0014.85,0009.12,0008.40
2022-02-25 03:06:00,,0826.0,5.00,0.00,22.2,21.4,00.0,31.3,23.9,06.1,0001.1,0014.98,0009.17,0008.44
2022-02-25 03:07:00,,0826.1,5.00,0.00,22.2,21.4,00.0,31.3,23.8,06.1,0001.0,0014.55,0009.18,0008.47
2022-02-25 03:08:00,,0826.1,5.00,0.00,22.2,21.7,00.0,31.3,23.9,06.1,0000.8,0014.30,0009.18,0008.50
2022-02-25 03:09:00,,0826.1,5.00,0.00,22.3,22.4,00.0,31.4,24.1,06.1,0000.8,0013.80,0009.19,0008.52
2022-02-25 03:10:00,,0826.1,5.00,0.00,22.5,22.9,00.0,31.4,24.3,06.0,0000.1,0013.79,0009.25,0008.54
2022-02-25 03:11:00,,0826.1,4.99,0.00,22.5,22.8,00.0,31.4,24.4,06.0,0000.2,0013.93,0009.29,0008.55
2022-02-25 03:12:00,,0826.2,5.01,0.00,22.5,22.6,00.0,31.4,24.3,06.0,0000.4,0013.95,0009.32,0008.57
2022-02-25 03:13:00,,0826.2,5.01,0.00,22.5,22.3,00.0,31.4,24.2,06.0,0001.1,0013.84,0009.33,0008.59
2022-02-25 03:14:00,,0826.2,5.00,0.00,22.4,22.1,00.0,31.4,24.1,06.0,0001.4,0013.68,0009.31,0008.61
2022-02-25 03:15:00,,0826.2,4.99,0.00,22.4,21.9,00.0,31.4,24.1,06.0,0001.7,0014.04,0009.30,0008.63
2022-02-25 03:16:00,,0826.2,4.99,0.00,22.3,21.8,00.0,31.4,24.0,06.1,0001.8,0013.76,0009.31,0008.64
2022-02-25 03:17:00,,0826.2,5.00,0.00,22.3,21.7,00.0,31.4,23.9,06.1,0001.9,0013.68,0009.31,0008.65
2022-02-25 03:18:00,,0826.2,5.00,0.00,22.3,21.5,00.0,31.4,23.9,06.1,0002.1,0013.70,0009.31,0008.66
2022-02-25 03:19:00,,0826.2,5.00,0.00,22.2,21.4,00.0,31.3,23.9,06.1,0002.0,0013.76,0009.33,0008.68
2022-02-25 03:20:00,,0826.2,4.99,0.00,22.2,21.4,00.0,31.3,23.9,06.1,0001.9,0013.65,0009.33,0008.69
2022-02-25 03:21:00,,0826.2,4.99,0.00,22.2,21.5,00.0,31.3,23.9,06.1,0002.6,0013.84,0009.36,0008.71
2022-02-25 03:22:00,,0826.3,5.01,0.00,22.3,22.2,00.0,31.3,24.1,06.1,0002.4,0013.91,0009.39,0008.72
2022-02-25 03:23:00,,0826.3,5.00,0.00,22.4,22.8,00.0,31.4,24.3,06.1,0001.9,0013.99,0009.42,0008.72
2022-02-25 03:24:00,,0826.3,4.99,0.00,22.5,22.9,00.0,31.4,24.4,06.1,0001.2,0014.34,0009.50,0008.74
2022-02-25 03:25:00,,0826.2,5.00,0.00,22.5,22.7,00.0,31.4,24.4,06.0,0001.5,0014.50,0009.57,0008.76
2022-02-25 03:26:00,,0826.2,4.99,0.00,22.5,22.5,00.0,31.4,24.4,06.1,0001.4,0014.29,0009.61,0008.79
2022-02-25 03:27:00,,0826.2,5.00,0.00,22.5,22.3,00.0,31.4,24.3,06.1,0001.5,0014.13,0009.60,0008.80
2022-02-25 03:28:00,,0826.2,5.00,0.00,22.5,22.1,00.0,31.4,24.2,06.1,0000.8,0014.27,0009.63,0008.83
2022-02-25 03:29:00,,0826.2,5.01,0.00,22.4,22.0,00.0,31.4,24.2,06.1,0000.8,0014.23,0009.65,0008.85
2022-02-25 03:30:00,,0826.2,5.01,0.00,22.4,21.8,00.0,31.4,24.2,06.1,0001.1,0014.28,0009.66,0008.86
2022-02-25 03:31:00,,0826.3,5.00,0.00,22.4,21.7,00.0,31.4,24.1,06.1,0001.1,0014.63,0009.68,0008.90
2022-02-25 03:32:00,,0826.2,5.00,0.00,22.4,21.6,00.0,31.4,24.1,06.1,0000.8,0014.78,0009.66,0008.92
2022-02-25 03:33:00,,0826.2,5.00,0.00,22.3,21.6,00.0,31.4,24.0,06.1,0000.7,0014.70,0009.69,0008.95
2022-02-25 03:34:00,,0826.2,5.00,0.00,22.3,21.5,00.0,31.3,24.0,06.2,0000.9,0014.73,0009.72,0008.98
2022-02-25 03:35:00,,0826.3,4.99,0.00,22.3,21.5,00.0,31.3,23.9,06.2,0001.1,0014.42,0009.67,0008.99
2022-02-25 03:36:00,,0826.3,5.00,0.00,22.3,22.0,00.0,31.3,24.1,06.2,0000.8,0014.24,0009.62,0008.98
2022-02-25 03:37:00,,0826.4,4.99,0.00,22.4,22.7,00.0,31.4,24.3,06.2,0000.6,0014.53,0009.60,0008.98
2022-02-25 03:38:00,,0826.5,5.00,0.00,22.6,23.1,00.0,31.4,24.5,06.1,0000.9,0015.40,0009.63,0009.01
2022-02-25 03:39:00,,0826.5,5.00,0.00,22.6,22.9,00.0,31.4,24.5,06.1,0001.7,0015.51,0009.65,0009.00
2022-02-25 03:40:00,,0826.5,5.00,0.00,22.6,22.6,00.0,31.4,24.4,06.1,0002.0,0016.30,0009.71,0009.02
2022-02-25 03:41:00,,0826.5,5.00,0.00,22.6,22.4,00.0,31.4,24.4,06.1,0001.8,0016.43,0009.76,0009.04
2022-02-25 03:42:00,,0826.5,5.01,0.00,22.5,22.2,00.0,31.4,24.3,06.1,0001.9,0016.56,0009.76,0009.02
2022-02-25 03:43:00,,0826.5,5.00,0.00,22.5,22.1,00.0,31.4,24.2,06.1,0001.7,0016.75,0009.79,0009.04
2022-02-25 03:44:00,,0826.5,5.00,0.00,22.5,21.9,00.0,31.4,24.2,06.1,0001.9,0017.00,0009.87,0009.09
2022-02-25 03:45:00,,0826.5,5.01,0.00,22.4,21.8,00.0,31.4,24.2,06.1,0002.0,0017.01,0009.93,0009.14
2022-02-25 03:46:00,,0826.5,5.01,0.00,22.4,21.7,00.0,31.4,24.1,06.1,0002.5,0017.10,0009.99,0009.19
2022-02-25 03:47:00,,0826.5,5.00,0.00,22.4,21.6,00.0,31.4,24.1,06.2,0002.6,0017.23,0010.07,0009.25
2022-02-25 03:48:00,,0826.6,5.00,0.00,22.4,21.6,00.0,31.4,24.1,06.2,0002.4,0018.38,0010.17,0009.30
2022-02-25 03:49:00,,0826.6,5.00,0.00,22.3,21.5,00.0,31.4,24.0,06.2,0002.0,0017.76,0010.22,0009.34
2022-02-25 03:50:00,,0826.6,5.00,0.00,22.3,21.6,00.0,31.4,24.0,06.2,0001.4,0017.62,0010.28,0009.40
2022-02-25 03:51:00,,0826.6,5.00,0.00,22.4,22.1,00.0,31.4,24.1,06.1,0001.0,0017.08,0010.29,0009.44
2022-02-25 03:52:00,,0826.6,4.99,0.00,22.5,22.9,00.0,31.4,24.4,06.1,0000.8,0016.87,0010.29,0009.49
2022-02-25 03:53:00,,0826.6,5.00,0.00,22.6,23.1,00.0,31.5,24.5,06.1,0001.0,0016.64,0010.35,0009.56
2022-02-25 03:54:00,,0826.7,4.99,0.00,22.6,22.9,00.0,31.5,24.6,06.0,0001.2,0016.10,0010.39,0009.60
2022-02-25 03:55:00,,0826.7,5.01,0.00,22.6,22.7,00.0,31.5,24.5,06.0,0001.3,0015.90,0010.37,0009.60
2022-02-25 03:56:00,,0826.8,5.00,0.00,22.6,22.5,00.0,31.5,24.4,06.0,0001.2,0015.82,0010.34,0009.61
2022-02-25 03:57:00,,0826.8,5.01,0.00,22.6,22.3,00.0,31.5,24.4,06.0,0001.0,0015.79,0010.32,0009.60
2022-02-25 03:58:00,,0826.8,4.99,0.00,22.6,22.1,00.0,31.5,24.3,06.1,0000.9,0015.73,0010.31,0009.60
2022-02-25 03:59:00,,0826.8,5.00,0.00,22.5,22.0,00.0,31.5,24.3,06.1,0000.9,0014.32,0010.28,0009.61
